Home > Weather > Medan > Past weeks

Flag for Indonesia Past Weather in Medan, North Sumatra, Indonesia — Yesterday and Last 2 Weeks

Now
90 °F

Scattered clouds.


Feels Like: 103 °F
Forecast: 74 / 97 °F
Wind: 10 mph from North

Location: Medan / Polonia

Current Time: Jun 30, 2016 at 3:35:04 PM

Latest Report: Jun 30, 2016 at 2:30 PM


Visibility: N/A

Pressure: 29.77 "Hg

Humidity: 67%

Dew Point: 77 °F

Location of MedanLocation

Past Weather in Medan — Graph

°F

Medan Temperature Yesterday

Maximum temperature yesterday: 91 °F (at 11:30 AM)
Minimum temperature yesterday: 73 °F (at 7:00 AM)
Average temperature yesterday: 83 °F

High & Low Weather Summary for the Past Weeks

 TemperatureHumidityPressure
High93 °F (Jun 24, 1:30 PM)100% (Jun 16, 12:30 AM)29.89 "Hg (Jun 16, 12:30 AM)
Low73 °F (Jun 18, 5:30 AM)47% (Jun 28, 2:00 PM)29.68 "Hg (Jun 15, 4:00 PM)
Average82 °F83%29.78 "Hg
* Reported Jun 15 2:00 PM — Jun 30 2:00 PM, Medan, Weather by CustomWeather, © 2016

Note: Actual official high and low records may vary slightly from our data, if they occured in-between our weather recording intervals... More about our weather records

Advertising

Medan Weather History for the Previous 24 Hours

Scroll right to see more
 ConditionsComfort  
Time TempWeatherWind HumidityBarometerVisibility
2:00 PM
Thu, Jun 30
90 °FScattered clouds.10 mph63%29.77 "HgN/A
1:30 PM91 °FScattered clouds.12 mph59%29.77 "HgN/A
1:00 PM90 °FScattered clouds.13 mph63%29.80 "HgN/A
12:30 PM91 °FScattered clouds.8 mph59%29.80 "HgN/A
12:00 PM91 °FScattered clouds.6 mph59%29.83 "HgN/A
11:30 AM91 °FScattered clouds.5 mph56%29.83 "HgN/A
11:00 AM90 °FScattered clouds.5 mph63%29.83 "HgN/A
10:30 AM90 °FScattered clouds.5 mph63%29.86 "HgN/A
10:00 AM88 °FPartly sunny.5 mph70%29.86 "Hg5 mi
9:30 AM84 °FScattered clouds.3 mph79%29.86 "Hg5 mi
9:00 AM84 °FScattered clouds.3 mph74%29.86 "Hg5 mi
8:30 AM84 °FScattered clouds.3 mph74%29.83 "Hg4 mi
8:00 AM79 °FScattered clouds.3 mph89%29.83 "Hg3 mi
7:30 AM77 °FScattered clouds.3 mph94%29.83 "Hg4 mi
7:00 AM79 °FScattered clouds.3 mph89%29.80 "Hg4 mi
6:30 AM79 °FPassing clouds.3 mph89%29.80 "Hg5 mi
6:00 AM79 °FPassing clouds.No wind94%29.80 "Hg4 mi
5:30 AM79 °FPassing clouds.3 mph100%29.80 "Hg3 mi
5:00 AM79 °FPassing clouds.No wind100%29.80 "Hg3 mi
4:30 AM79 °FPassing clouds.3 mph94%29.80 "Hg3 mi
3:00 AM81 °FPassing clouds.2 mph94%29.80 "Hg3 mi
2:30 AM81 °FWarm.3 mph94%29.80 "Hg3 mi
2:00 AM81 °FPassing clouds.No wind94%29.80 "Hg4 mi
1:30 AM81 °FPassing clouds.3 mph94%29.80 "Hg4 mi
1:00 AM82 °FPassing clouds.3 mph89%29.83 "Hg3 mi
12:30 AM82 °FPassing clouds.3 mph89%29.83 "Hg4 mi
12:00 AM82 °FPassing clouds.3 mph89%29.83 "Hg4 mi
11:30 PM
Wed, Jun 29
82 °FPassing clouds.5 mph84%29.83 "Hg4 mi
11:00 PM84 °FPassing clouds.5 mph79%29.83 "Hg4 mi
10:30 PM82 °FPassing clouds.3 mph89%29.83 "Hg3 mi
10:00 PM82 °FPassing clouds.3 mph89%29.83 "Hg3 mi
9:30 PM84 °FPassing clouds.5 mph79%29.83 "Hg3 mi
9:00 PM84 °FPassing clouds.3 mph79%29.83 "Hg3 mi
8:30 PM84 °FPassing clouds.7 mph79%29.80 "Hg3 mi
8:00 PM86 °FLight rain. Passing clouds.9 mph70%29.80 "HgN/A
7:30 PM86 °FPassing clouds.8 mph70%29.80 "HgN/A
7:00 PM86 °FPassing clouds.3 mph70%29.77 "Hg4 mi
6:30 PM86 °FScattered clouds.5 mph70%29.77 "Hg4 mi
6:00 PM88 °FScattered clouds.7 mph66%29.77 "Hg4 mi
5:30 PM88 °FScattered clouds.7 mph62%29.74 "Hg5 mi
5:00 PM88 °FScattered clouds.7 mph62%29.74 "Hg5 mi
4:30 PM90 °FScattered clouds.8 mph63%29.74 "Hg5 mi
4:00 PM90 °FScattered clouds.8 mph59%29.74 "Hg5 mi
3:00 PM90 °FScattered clouds.7 mph59%29.74 "Hg5 mi
Weather by CustomWeather, © 2016

See weather overviewHow to use our weather pages